Wind_Speed
26 26 26 26 26 26 26 26 26 26 26 27 26 26 27 26 24 22 21 23 23 20 17 17 15 14 14 15 17 16 17 20 22 25 30 31 25 24 24 20 18 17 19 21 17 12 11 12 12 11 11 10 10 9 10 9 9 8 4 3 3 4 4 5 6 5 3 1 2 2 3 3 1 3 4 4 6 7 8 12 11 11 15 11 7 7 6 8
26 26 26 26 25 26 26 26 27 26 26 27 26 26 26 26 26 25 22 21 23 22 18 17 16 14 13 14 15 15 17 20 22 29 33 28 26 27 23 21 20 15 16 20 18 14 11 12 10 9 9 9 9 9 10 9 11 7 3 3 5 5 5 7 8 7 3 1 4 2 3 2 2 3 5 3 3 4 5 9 12 11 14 13 10 9 8 9
27 26 26 26 26 26 26 26 26 27 27 26 27 26 26 26 26 26 24 21 22 23 21 19 17 14 13 13 14 14 15 17 24 33 31 26 29 28 24 23 20 17 17 18 18 16 13 12 9 7 7 8 9 10 9 8 10 6 4 3 6 7 5 8 10 8 4 4 4 2 2 2 4 2 6 4 1 1 6 9 11 13 15 15 13 11 10 11
27 27 27 26 26 26 26 26 26 27 27 26 27 27 26 26 26 27 25 22 22 23 23 21 17 16 14 13 13 13 11 14 21 26 26 29 31 27 25 24 20 18 20 19 18 17 14 13 10 7 6 6 8 8 7 9 9 5 6 5 6 8 5 10 15 11 7 5 5 2 3 4 4 2 7 5 4 2 11 15 15 15 14 14 15 14 12 13
27 27 27 27 27 27 26 26 26 26 27 27 26 26 27 26 26 27 26 24 22 22 23 21 19 16 15 14 14 11 6 7 8 11 17 22 24 25 26 24 20 18 20 20 19 18 16 14 11 7 5 4 5 5 5 12 11 4 7 10 9 10 5 10 17 13 9 6 5 2 1 3 2 3 8 9 6 5 11 13 15 17 15 12 13 13 14 14
27 27 27 27 27 27 27 27 26 26 26 27 27 27 27 27 27 27 27 26 23 22 22 22 21 17 16 16 15 11 9 4 3 1 7 9 12 21 25 24 21 19 22 22 20 19 17 14 11 8 5 3 5 5 5 13 13 4 5 11 12 13 8 10 16 14 11 9 7 4 3 4 2 3 8 12 11 11 10 6 8 13 14 13 12 12 13 14
25 27 27 27 27 27 27 26 26 26 26 27 27 27 27 27 27 27 28 26 25 23 22 23 22 18 16 16 15 14 18 17 2 6 0 2 8 16 20 23 23 22 25 25 23 21 18 15 14 10 6 2 4 6 7 11 11 6 4 7 14 16 14 13 15 16 15 12 10 6 5 6 5 4 4 10 13 13 11 10 8 7 9 12 13 13 13 13
25 26 26 26 27 27 26 26 27 27 26 26 27 27 27 27 27 27 28 27 26 24 22 23 23 22 19 18 19 16 24 30 12 1 2 2 6 10 14 18 22 26 27 28 27 25 20 17 18 13 6 4 4 4 7 7 6 6 5 7 10 14 17 17 15 16 16 13 11 7 7 11 10 6 4 10 14 12 11 13 11 7 5 9 12 13 14 14
25 25 26 27 27 27 26 26 27 27 27 26 27 27 27 27 27 27 28 27 26 25 23 22 23 24 21 22 21 17 27 33 20 11 5 2 4 5 7 10 18 26 28 29 28 27 23 19 20 17 7 7 7 4 4 5 5 6 9 11 9 9 11 15 16 16 16 14 11 7 8 15 13 6 7 15 18 14 12 11 12 12 10 9 11 12 14 14
25 24 25 26 27 27 26 25 26 27 28 27 27 27 27 27 27 27 27 27 27 26 25 22 22 25 25 26 21 14 23 27 21 19 12 6 6 4 4 4 10 21 28 31 30 30 27 21 21 20 9 6 9 6 5 6 4 4 10 13 14 14 9 8 14 18 16 13 12 9 9 14 10 6 6 12 14 14 15 13 12 14 14 12 11 12 13 14
24 24 23 24 25 26 26 26 25 26 27 27 26 26 26 27 26 27 27 26 27 26 26 24 22 24 27 29 25 17 17 16 16 19 19 15 11 7 6 3 6 16 27 31 31 31 29 22 20 19 10 5 6 5 7 10 7 5 6 8 13 18 14 7 9 13 11 8 13 11 8 11 5 5 9 15 12 11 14 15 15 16 15 15 13 13 14 15
23 24 23 23 24 25 26 26 25 25 26 27 27 26 25 26 26 26 27 27 27 26 26 25 22 24 28 32 35 30 20 17 16 15 20 22 17 12 9 7 8 13 23 31 32 30 28 23 19 18 10 5 5 2 6 11 10 6 4 3 7 11 13 12 10 10 10 5 9 7 5 10 5 6 16 23 18 15 15 14 16 18 17 16 15 15 16 16
23 23 23 22 22 24 25 25 25 24 24 26 26 26 25 25 26 26 27 27 27 26 26 26 22 23 28 31 37 36 25 24 24 16 17 21 21 19 13 11 9 11 19 29 31 28 27 22 20 20 13 7 5 3 3 4 7 5 3 2 3 6 9 12 12 12 11 7 9 8 4 10 6 12 22 26 21 19 20 18 18 18 18 18 17 19 19 18
23 23 23 21 21 23 24 24 25 23 23 24 24 25 25 24 25 26 27 27 27 26 25 25 21 21 29 31 35 37 30 29 26 18 17 18 22 23 17 13 11 11 16 24 28 27 26 21 20 20 14 10 6 4 1 2 3 3 1 2 3 6 5 6 10 13 9 9 15 11 7 9 5 11 21 25 22 20 22 23 23 23 22 22 21 22 22 21
23 22 21 21 21 21 22 23 24 23 23 24 23 24 25 25 24 25 26 26 26 26 25 25 22 19 23 25 28 34 33 33 29 22 19 18 17 19 21 18 13 12 13 19 25 27 27 22 19 14 8 10 7 1 1 2 1 2 4 4 5 8 4 1 6 15 11 8 16 13 6 6 6 10 15 19 22 21 24 26 27 28 28 28 26 25 25 23
23 22 20 20 21 21 21 21 22 22 22 22 23 23 24 25 25 24 24 25 25 25 23 23 26 23 16 14 19 28 32 36 35 27 23 21 18 14 17 18 14 12 12 16 22 24 26 23 18 11 5 5 5 2 2 1 3 3 7 7 6 8 4 2 2 11 13 6 10 11 5 2 4 13 19 20 21 22 25 27 29 30 31 31 30 28 26 24
23 23 21 19 20 21 20 20 21 22 22 21 22 22 23 24 25 24 24 24 24 25 23 21 22 22 18 12 11 21 33 38 35 30 27 25 23 16 14 17 17 16 14 16 20 20 22 21 14 9 4 3 4 4 2 6 8 7 6 5 6 6 5 4 2 3 9 6 5 8 8 6 4 9 18 23 23 21 23 26 29 31 32 32 30 29 27 26
24 23 21 19 20 21 21 20 21 21 21 21 21 21 20 22 23 24 24 25 24 22 21 21 18 11 16 21 16 16 28 36 34 33 31 26 24 20 14 16 18 20 17 13 17 20 18 15 9 4 3 4 5 7 9 10 8 7 7 5 5 5 5 6 4 2 5 5 5 7 10 12 8 8 15 21 20 19 22 26 29 30 30 30 29 29 28 29
24 23 21 19 19 21 21 20 20 20 20 20 21 20 19 20 20 21 24 24 21 15 10 16 22 13 3 10 20 22 22 28 30 31 32 29 26 20 13 13 18 22 17 9 12 19 16 9 7 6 6 9 10 12 15 8 1 4 9 8 6 5 5 4 4 4 4 3 6 10 12 10 10 10 15 21 20 18 22 24 25 27 28 29 30 31 32 33
25 23 21 20 20 20 20 20 19 20 20 19 20 18 15 13 10 12 20 24 25 24 16 14 24 27 10 5 7 19 18 17 22 26 29 30 27 19 12 11 15 18 13 7 9 17 17 9 8 11 12 15 15 12 12 7 3 5 3 3 6 7 7 4 3 5 2 2 6 10 12 11 10 9 13 25 25 17 17 17 21 26 29 32 33 34 35 33
25 24 21 19 19 19 20 21 20 20 21 19 19 16 13 14 9 5 13 21 27 32 31 21 18 25 24 11 3 12 14 12 16 22 26 29 27 17 10 10 10 10 11 9 7 12 15 10 11 16 16 15 13 10 10 9 10 9 2 2 5 8 8 4 4 6 3 3 6 5 8 11 9 6 10 19 18 14 16 16 20 25 28 30 31 33 33 30
26 24 22 19 19 19 19 20 20 21 19 17 18 18 19 21 16 9 6 9 19 29 34 32 24 21 25 20 9 11 14 10 13 20 24 30 28 17 13 11 8 6 10 10 5 8 11 10 15 18 14 10 9 9 9 10 11 10 4 4 5 3 3 2 2 4 3 3 5 3 7 11 8 7 10 13 15 19 21 21 25 28 28 29 30 31 33 33
27 24 21 19 18 18 19 20 20 20 19 17 19 23 24 23 20 17 9 3 9 19 29 35 32 28 28 21 11 15 16 11 13 20 27 30 28 25 18 11 9 8 8 9 8 10 10 11 17 16 10 10 9 7 8 8 9 8 7 7 7 3 2 2 2 2 4 5 4 2 6 8 6 7 8 13 21 25 26 26 29 30 31 33 34 35 36 37
26 24 21 18 17 18 18 19 19 20 20 19 21 24 24 22 20 20 14 4 5 8 19 29 33 35 35 26 13 16 19 16 17 23 29 31 29 25 18 11 12 10 8 12 14 13 9 8 13 13 10 12 10 6 8 8 8 10 11 11 11 7 3 1 1 2 2 4 3 2 6 8 8 9 8 11 18 22 27 27 26 30 34 35 36 37 37 37
25 23 21 17 16 17 18 18 19 20 19 20 24 22 21 20 19 20 13 4 5 4 8 17 23 31 37 31 19 15 17 17 20 27 32 36 33 22 14 14 12 8 11 14 14 13 11 8 12 14 12 13 11 8 11 11 8 10 12 14 15 10 5 2 1 1 2 5 3 2 5 10 9 10 10 8 10 14 21 22 25 32 34 34 35 37 37 37
24 21 19 16 15 16 17 18 20 19 18 23 26 21 19 19 18 20 11 1 4 4 6 11 13 19 28 30 25 16 10 13 20 29 34 37 36 24 13 11 8 8 12 11 8 6 8 8 9 12 13 13 13 11 13 13 8 8 9 13 14 9 9 8 4 3 4 4 2 3 5 10 9 9 9 7 9 13 16 16 24 33 32 32 35 36 38 38
23 20 16 14 15 16 18 19 19 19 20 24 23 19 19 18 18 17 8 2 5 6 8 11 11 14 22 27 30 17 3 11 19 25 34 36 34 26 14 9 7 9 9 6 5 3 7 11 8 9 13 13 12 11 12 12 9 8 5 9 12 12 14 12 6 5 5 3 2 1 5 7 11 12 7 8 10 12 14 16 21 27 29 30 33 34 36 38
23 19 15 14 15 18 20 20 20 21 23 20 17 17 18 17 18 13 5 3 5 7 6 12 15 15 18 25 36 23 4 13 16 19 36 39 32 23 13 12 12 10 10 9 8 5 7 14 12 10 11 9 10 10 10 12 9 8 4 9 10 13 13 10 6 6 5 4 5 5 5 5 11 13 5 6 10 13 14 16 17 21 25 27 30 33 36 37
22 18 15 14 16 19 20 20 22 22 22 18 14 14 15 17 14 6 3 3 2 1 3 13 17 14 16 20 29 28 14 6 5 17 34 34 31 19 7 15 16 8 8 8 9 7 4 10 14 11 7 7 10 11 11 14 10 6 6 6 3 4 7 7 7 7 5 5 8 9 9 7 12 13 6 3 10 14 12 11 12 18 23 25 29 33 34 35
22 18 15 15 17 19 18 20 24 21 19 17 15 13 14 16 10 4 7 4 1 2 3 9 12 16 21 15 15 23 20 6 3 16 23 23 30 21 6 14 14 5 4 4 8 8 2 3 10 9 8 9 8 6 9 14 11 6 7 4 3 3 2 2 3 4 6 7 11 15 16 12 11 14 10 7 10 11 8 8 10 14 20 24 29 32 33 35
23 18 16 16 17 19 19 21 23 21 20 18 15 16 16 12 5 5 7 0 3 2 4 3 5 14 22 15 10 16 17 8 8 12 10 10 19 15 5 8 6 4 5 4 7 10 4 1 4 5 10 10 7 3 3 5 8 6 6 5 1 0 1 0 0 3 6 8 12 17 18 14 12 14 8 6 10 11 8 9 9 9 17 26 30 32 35 36
25 19 17 16 17 18 21 22 19 19 20 18 16 19 14 6 4 5 3 3 2 3 3 3 5 8 15 16 12 13 13 10 11 11 8 8 10 10 9 8 8 6 6 7 9 10 7 5 2 1 5 9 9 6 1 3 6 6 5 6 5 4 4 4 4 4 6 7 8 11 14 12 12 16 13 7 9 10 8 11 12 13 19 25 29 32 34 35
26 20 17 16 17 19 21 20 18 18 19 19 20 18 8 4 6 8 5 0 0 3 1 4 8 8 12 15 11 12 13 10 11 12 10 10 10 12 12 11 12 7 4 9 10 5 4 6 5 2 3 9 12 9 6 3 7 9 7 8 8 5 5 7 6 6 8 9 7 6 10 9 7 11 18 18 15 13 14 17 19 21 23 26 28 29 30 31
25 19 17 16 17 18 19 19 19 18 19 23 20 12 7 5 5 8 10 5 2 2 2 1 10 12 12 13 10 11 11 7 11 13 9 9 8 10 12 10 12 7 2 8 8 6 8 7 8 9 5 11 15 12 11 7 7 10 7 7 8 6 6 7 5 6 7 5 4 3 6 6 5 6 10 13 12 17 27 28 22 21 24 26 26 25 27 30
25 18 15 15 17 18 18 19 20 18 21 24 15 7 9 7 4 4 6 4 2 2 1 2 7 10 10 11 10 12 12 8 11 11 8 10 10 10 12 10 13 10 4 7 6 6 10 7 6 14 11 10 13 12 9 8 5 6 5 7 9 8 8 6 3 3 2 2 1 3 4 4 4 6 7 7 6 9 21 26 22 23 26 25 25 28 30 31
23 14 14 16 19 19 18 20 20 19 22 20 8 7 8 5 4 4 3 4 3 3 1 3 3 7 7 8 8 13 12 6 10 9 4 10 12 12 13 10 14 16 10 8 5 4 8 6 2 9 10 10 14 12 10 10 7 4 5 8 5 4 6 6 4 1 2 5 3 4 4 3 3 7 9 10 7 4 9 12 14 20 23 21 25 32 34 34
19 12 14 16 17 17 19 22 20 22 26 17 6 8 5 4 5 4 3 5 4 4 4 0 3 5 6 7 8 13 11 5 9 9 4 7 9 11 13 10 13 19 15 11 6 3 7 5 0 6 9 11 13 11 8 9 8 5 8 10 3 2 2 2 4 3 4 7 4 5 6 4 5 6 7 9 9 7 8 7 6 12 16 18 25 33 35 35
15 12 14 15 14 15 18 22 21 25 25 13 9 11 5 3 4 2 3 5 4 4 4 3 4 4 6 8 8 12 12 8 10 10 8 6 5 11 15 10 11 18 20 16 7 2 6 4 4 4 7 5 8 9 6 8 5 2 5 9 5 1 3 5 4 4 6 7 6 8 9 6 6 5 4 8 10 9 8 7 7 8 11 16 24 31 33 32
12 8 9 10 9 11 17 21 25 27 18 7 9 11 4 2 4 4 5 4 4 5 4 5 5 2 4 5 6 10 13 11 10 9 10 6 3 11 17 11 10 16 20 17 7 2 6 6 4 2 2 3 6 6 7 8 4 1 1 5 3 3 5 7 5 3 6 7 6 9 10 7 7 7 7 12 16 12 5 5 7 9 14 22 27 31 34 33
7 4 6 8 5 8 16 22 25 21 10 5 7 5 2 3 4 8 11 6 1 2 4 6 6 4 3 3 4 5 9 11 11 8 8 7 4 9 15 12 9 14 17 14 7 1 4 6 5 1 2 2 6 7 11 14 9 4 4 5 5 4 1 2 3 3 5 6 5 7 8 5 4 5 9 13 17 14 7 8 8 12 21 28 31 34 34 32
6 3 5 7 3 8 18 22 17 9 4 5 5 2 1 4 4 7 12 9 3 3 2 3 5 5 4 4 4 4 5 8 11 9 6 8 6 4 12 15 11 13 14 10 8 3 3 6 6 2 1 4 6 6 8 11 10 8 6 7 8 7 4 3 5 4 3 5 6 6 7 6 4 4 7 11 12 9 5 8 9 13 22 29 31 32 31 27
6 3 4 5 3 14 22 16 6 4 4 5 4 3 3 3 4 5 8 7 3 3 1 1 2 3 3 5 5 4 4 5 10 11 7 8 9 4 12 22 19 15 13 9 11 8 3 3 3 2 4 4 4 2 2 3 7 7 7 7 7 7 6 7 9 6 4 6 7 7 8 6 4 4 5 7 7 3 2 6 8 12 19 25 28 28 25 22
6 5 7 8 7 18 21 8 2 5 4 2 2 4 4 2 2 4 5 5 3 1 1 0 2 4 3 4 5 5 5 5 8 11 8 7 11 11 15 25 22 15 12 9 10 7 1 2 4 2 1 1 4 4 3 2 4 5 6 8 9 11 11 11 9 5 4 6 6 7 8 5 3 4 5 5 5 2 4 7 9 12 14 16 19 19 16 15
7 8 9 10 12 20 14 3 3 7 4 1 1 3 4 3 3 5 5 5 5 3 3 4 3 4 4 3 4 5 6 6 5 10 10 5 8 13 17 26 23 14 11 11 11 11 7 5 5 4 2 0 2 3 3 2 4 6 9 12 14 15 15 11 6 3 4 6 8 7 8 6 4 4 3 5 4 3 6 8 10 12 12 11 12 12 12 14
7 6 7 8 17 24 14 3 2 5 5 3 2 4 4 3 5 9 8 6 6 5 4 5 4 4 3 1 2 3 5 6 5 7 9 7 5 5 13 26 24 15 16 19 17 14 10 6 6 8 7 7 7 7 7 7 6 4 6 12 15 15 15 11 6 6 5 6 8 7 5 5 6 7 7 7 7 7 8 9 10 11 11 11 12 16 19 22
4 3 2 4 14 19 14 8 2 1 3 4 2 4 7 5 4 8 9 6 6 7 4 2 3 4 3 3 3 5 6 8 7 4 5 7 5 2 9 23 24 19 22 22 19 11 4 4 9 10 11 12 12 12 8 6 6 6 9 14 15 15 16 12 6 7 7 6 8 8 7 8 10 11 12 10 9 10 11 10 10 10 10 14 20 25 29 30
3 2 0 0 5 7 8 9 5 1 3 5 3 3 8 8 3 3 8 7 7 10 4 1 3 5 5 6 6 7 7 7 7 5 6 8 5 4 5 15 19 24 24 17 15 10 2 6 11 12 14 15 11 8 5 8 10 12 13 16 15 14 15 13 11 12 9 7 10 11 10 12 14 17 18 15 13 12 12 14 15 14 17 21 25 28 28 30
2 3 2 1 2 2 3 7 8 5 3 4 3 2 5 9 7 5 6 3 3 9 6 3 6 9 9 9 7 7 8 7 7 8 8 8 4 3 2 5 10 20 19 11 10 8 3 8 13 12 16 18 12 6 6 8 9 9 12 15 15 12 13 14 16 17 13 10 11 13 15 17 17 18 18 16 14 14 15 19 23 24 24 21 18 18 21 25
2 4 5 4 3 3 4 3 8 9 6 4 4 4 5 8 9 8 4 2 1 7 8 6 9 13 14 12 8 7 8 8 9 10 9 10 9 6 4 2 5 12 13 9 7 4 3 8 13 12 14 18 13 6 6 8 7 7 11 14 14 14 15 16 16 17 18 15 14 16 18 18 15 13 16 19 17 15 18 22 24 24 23 17 14 16 20 24
7 5 6 7 6 6 7 4 6 7 8 7 6 6 7 8 11 9 4 6 6 5 8 13 15 14 14 13 11 12 12 10 12 13 11 11 11 8 7 5 4 7 9 7 5 3 3 6 9 10 10 14 12 8 6 7 7 6 8 8 10 11 12 15 16 15 16 16 16 17 16 14 12 12 17 21 19 14 15 19 21 24 23 19 17 19 22 25
12 9 7 7 5 4 5 5 4 5 7 7 7 6 7 10 10 7 5 10 13 7 9 17 18 11 9 11 12 15 17 16 18 18 15 15 14 12 10 8 7 9 8 7 6 5 5 4 3 6 7 11 11 10 8 5 3 3 4 4 9 12 12 15 15 14 15 14 15 15 13 13 14 13 13 18 17 13 14 18 23 27 26 19 18 23 27 28
17 14 10 6 4 3 4 3 4 6 5 5 8 9 9 9 7 6 6 11 17 19 17 15 12 7 5 8 16 25 28 25 24 21 18 18 17 12 9 8 11 13 11 8 7 5 6 5 3 5 7 9 8 9 9 5 2 5 7 9 13 15 14 14 12 13 15 14 12 13 13 14 15 11 11 14 15 12 14 22 26 25 24 21 21 26 29 29
Wind_Direction
278 276 274 273 271 269 268 266 262 259 256 253 252 252 256 256 255 258 255 247 243 243 251 258 260 262 264 269 271 270 268 265 262 259 252 246 245 247 246 246 246 242 237 239 245 244 230 225 229 229 226 219 219 222 209 202 183 162 128 130 185 191 193 189 188 197 170 208 252 22 61 139 266 246 202 207 223 224 218 211 215 222 219 224 238 233 228 213
277 276 273 271 270 268 267 266 263 260 257 253 251 250 253 254 254 255 255 251 244 239 240 249 255 260 264 268 272 272 270 271 271 262 251 245 249 248 243 241 240 237 235 232 233 237 228 222 225 224 220 212 211 211 204 195 185 176 112 155 211 197 200 197 192 200 175 270 266 1 47 131 275 240 197 214 233 216 221 223 224 232 227 224 228 227 227 218
275 274 273 271 269 267 265 264 263 261 257 254 251 250 250 252 253 253 254 252 246 240 234 237 246 255 262 267 272 273 276 285 279 265 252 247 252 248 242 239 236 231 231 227 223 226 224 219 219 214 215 213 213 208 201 189 189 198 149 173 231 201 207 215 204 201 197 274 286 357 7 347 346 224 198 196 149 192 230 227 224 232 232 226 224 228 231 222
274 272 271 270 268 266 264 262 262 261 258 256 252 250 248 249 252 252 253 252 249 246 237 231 235 245 255 261 265 268 286 301 285 270 258 252 252 247 242 240 236 227 226 224 217 217 219 218 217 211 217 224 219 214 207 190 187 195 170 193 224 182 193 221 210 213 220 262 275 296 335 339 8 183 203 174 118 281 245 235 232 239 242 229 227 231 232 227
275 272 270 269 268 266 264 261 260 260 258 256 253 251 249 247 249 250 252 250 249 250 243 232 227 235 246 250 257 257 275 311 297 268 256 255 252 245 241 239 235 225 220 221 214 212 214 215 215 211 220 230 210 206 223 204 188 176 201 221 214 169 179 218 209 218 224 228 246 269 320 288 307 208 212 188 169 233 243 246 249 253 256 246 242 239 232 229
275 273 271 268 266 265 263 261 259 258 257 256 253 251 249 247 246 248 249 249 248 248 246 236 226 227 236 242 250 235 204 223 37 72 245 251 246 238 236 233 226 216 214 215 212 210 211 211 209 199 189 213 210 197 219 208 197 204 229 232 223 192 190 209 204 213 217 210 221 236 241 240 248 256 230 209 216 234 234 254 277 267 255 249 250 243 236 232
275 273 271 268 264 263 263 262 259 257 256 254 253 250 248 247 245 246 246 247 246 245 246 241 229 221 228 234 238 226 212 220 199 62 89 197 219 222 224 223 213 206 205 206 208 206 207 207 202 190 171 191 219 211 228 221 209 221 241 241 233 213 204 208 205 209 214 216 225 232 246 243 228 251 239 218 235 248 244 254 278 278 246 238 241 242 243 240
275 272 270 267 264 262 262 262 260 259 257 254 252 250 248 246 244 244 244 245 246 245 244 243 234 220 219 223 223 221 224 226 221 33 3 141 199 209 211 213 205 200 200 203 205 202 204 206 199 190 177 197 200 199 225 236 229 222 229 244 240 223 216 216 208 208 216 226 239 235 240 248 236 229 236 238 252 261 256 255 252 243 221 231 241 244 244 240
276 272 269 267 265 262 261 262 261 259 257 254 252 250 247 245 244 243 244 244 243 244 243 242 237 223 216 219 217 221 237 237 230 237 266 176 181 193 199 205 202 197 196 201 202 199 203 207 202 195 191 207 210 219 201 210 237 219 220 237 250 242 228 220 213 215 226 235 242 230 237 252 242 224 253 252 254 258 258 255 239 234 235 241 247 245 244 242
284 276 269 267 264 262 259 258 259 258 257 254 251 249 247 245 243 242 244 243 241 242 242 241 238 227 216 214 211 222 247 249 240 233 236 220 201 179 175 201 210 199 195 198 199 200 203 207 207 202 209 216 208 218 194 190 233 244 227 236 250 257 257 222 211 217 224 232 231 217 237 251 231 199 249 249 246 251 250 249 242 238 239 240 246 244 243 247
293 283 274 267 265 263 259 256 256 256 255 253 250 248 247 245 244 241 241 243 241 240 240 241 239 231 222 213 210 221 238 249 248 233 224 221 213 198 195 218 237 211 200 198 199 201 201 206 210 204 212 219 194 212 226 221 239 273 242 244 258 261 266 234 203 210 208 225 226 217 252 259 207 170 239 242 236 244 245 245 242 237 238 237 242 244 242 250
298 289 280 270 265 263 261 257 253 253 253 251 249 248 246 244 243 241 240 242 242 239 238 240 238 234 229 218 218 222 225 239 249 232 220 222 218 215 221 232 245 226 210 202 200 199 199 204 210 206 204 197 169 177 248 233 232 246 218 245 280 277 268 231 203 203 192 212 217 195 281 264 211 188 238 246 238 236 246 250 244 237 237 235 238 244 246 253
300 294 287 276 267 263 262 258 254 252 251 249 247 247 246 244 242 241 239 240 241 240 238 238 239 238 233 225 225 226 223 234 241 231 221 224 224 224 226 233 239 237 221 209 202 196 194 201 209 209 207 193 168 176 265 236 209 212 189 207 274 287 269 222 197 190 187 204 186 161 252 246 219 212 232 248 241 232 242 246 245 239 235 236 241 249 251 253
301 295 288 280 272 264 261 258 255 252 249 248 247 246 245 242 241 239 239 240 240 241 238 238 240 241 241 236 232 231 227 231 232 226 222 224 229 228 224 227 231 239 228 213 206 194 191 201 209 210 214 208 188 196 301 29 164 172 176 193 203 238 251 202 180 169 177 213 184 170 245 240 241 228 227 243 239 228 235 238 240 241 240 243 246 251 254 254
304 295 285 280 275 266 262 258 254 251 249 247 245 245 243 241 240 237 238 238 239 242 240 242 240 240 251 248 236 232 229 230 227 221 219 220 229 230 224 224 227 235 225 210 205 196 195 204 208 209 215 209 195 163 32 3 330 145 204 212 193 220 244 298 187 170 179 214 185 181 250 244 247 241 227 237 235 223 227 233 236 239 241 244 246 248 253 255
308 299 287 279 273 267 262 258 255 250 247 245 244 245 242 241 239 236 235 236 238 240 239 245 242 236 253 268 245 230 222 225 226 220 218 218 225 230 224 220 217 219 206 198 200 197 200 207 213 217 199 185 181 138 97 253 257 209 213 217 203 211 216 308 256 188 192 190 185 202 241 236 235 240 231 233 233 220 219 228 232 234 237 238 241 244 247 251
312 304 293 281 273 267 260 258 256 250 246 245 243 243 242 240 240 238 233 233 234 234 235 242 241 236 243 257 243 216 214 223 224 218 216 215 220 229 219 206 198 196 187 186 192 194 203 205 207 219 197 163 166 155 176 215 220 216 214 223 216 204 193 209 279 212 195 181 199 220 233 229 244 256 237 231 234 223 214 223 230 233 236 236 239 242 244 250
314 308 297 284 275 267 261 258 256 252 247 243 241 241 239 235 238 238 231 231 232 232 239 239 231 234 244 241 232 216 217 222 222 218 215 207 212 224 213 198 191 184 175 177 190 192 201 200 183 193 194 184 178 179 207 215 210 206 205 222 220 205 209 210 234 223 166 181 209 211 230 233 238 266 253 240 238 231 223 225 231 235 237 238 240 241 246 254
316 311 299 286 276 266 261 258 254 252 246 241 239 238 239 234 236 239 231 230 226 220 232 225 212 206 257 244 226 226 227 224 220 218 212 203 207 214 203 199 191 179 170 167 189 190 191 186 172 197 209 202 197 197 212 215 136 208 211 226 226 223 241 211 230 240 154 176 218 216 233 233 225 240 252 252 249 242 237 234 236 242 242 243 244 245 249 253
316 312 299 285 275 265 259 256 254 251 245 241 236 235 239 227 227 244 231 228 227 219 219 217 211 214 233 3 203 213 220 219 214 211 208 203 205 207 198 201 189 177 176 171 179 182 182 187 194 206 211 209 208 206 218 232 299 273 244 247 227 224 243 203 217 260 166 193 231 221 237 240 229 227 238 247 250 244 240 239 240 243 245 245 246 248 249 249
312 310 300 285 274 265 257 253 251 248 244 238 231 229 226 207 197 227 218 227 234 227 227 230 224 221 230 257 247 204 202 191 200 207 206 200 200 203 194 195 192 184 189 180 162 168 180 203 209 209 213 210 212 210 216 228 248 263 305 328 245 224 243 209 196 246 183 194 243 224 251 255 238 230 238 246 253 248 236 239 244 245 247 248 248 249 249 251
309 306 300 285 272 264 256 251 249 248 243 235 229 228 229 221 216 221 208 229 241 235 233 233 236 238 234 240 244 212 197 176 190 202 198 194 194 195 183 186 204 199 189 181 155 170 191 216 211 208 210 206 211 206 204 218 234 249 251 274 265 216 252 259 202 243 169 196 251 223 252 262 244 226 233 238 250 255 246 242 247 249 252 253 254 255 255 258
309 304 298 285 270 261 254 249 247 247 243 235 231 230 233 230 225 230 233 258 259 238 231 231 232 239 240 240 224 199 195 179 183 192 191 189 190 192 183 176 199 200 193 189 185 192 201 215 211 204 194 196 211 190 182 210 226 234 227 237 248 192 160 274 261 223 194 222 246 223 252 266 253 233 231 229 239 254 257 250 250 251 252 255 256 258 259 260
311 302 294 281 267 258 252 248 243 242 243 237 235 234 234 234 230 234 236 255 292 237 229 232 229 230 235 238 224 196 198 198 191 189 188 186 188 192 187 175 189 198 201 199 200 208 216 212 201 192 185 193 198 171 175 203 220 225 220 224 239 224 189 260 276 211 248 267 267 321 289 273 247 240 245 232 233 249 257 255 253 250 249 252 254 255 256 257
313 302 292 275 262 256 249 247 240 238 241 237 237 235 234 237 234 232 227 251 283 234 231 231 224 229 230 231 230 202 199 210 203 194 190 189 188 184 186 185 185 196 199 200 205 217 227 206 175 183 194 189 184 186 194 199 214 229 221 219 229 227 219 231 130 144 281 276 245 156 269 274 255 236 235 223 215 235 248 252 251 248 247 247 248 250 251 253
316 306 294 272 257 251 243 243 241 238 238 238 239 234 231 235 235 228 211 221 270 206 197 199 201 222 219 217 215 196 203 219 208 202 195 194 191 181 181 182 177 201 194 194 208 219 225 204 172 185 192 183 186 202 203 194 206 233 211 206 218 221 229 230 179 169 225 256 285 141 222 271 277 249 232 204 205 224 231 241 248 247 245 244 245 249 250 251
317 308 296 271 250 240 235 236 239 236 234 239 240 234 232 231 230 223 196 242 248 159 164 182 180 201 203 202 196 185 206 182 185 201 196 193 191 186 190 177 174 202 179 173 209 186 193 202 196 187 185 187 195 204 201 186 199 234 183 166 197 210 222 224 197 206 234 260 315 160 205 261 272 260 232 179 206 228 225 232 245 246 244 244 245 248 251 252
319 308 293 268 247 236 233 234 236 233 234 243 244 232 230 226 220 211 179 249 215 142 152 181 187 196 192 189 186 185 195 155 161 194 194 191 186 184 200 192 188 195 172 176 203 184 180 198 203 191 187 194 199 203 192 176 202 237 169 149 186 205 213 214 202 224 244 249 248 212 190 241 263 261 233 175 218 232 227 227 239 246 243 244 246 249 253 255
320 307 290 266 247 237 234 234 235 237 241 247 246 232 221 210 204 188 197 245 191 126 135 167 182 182 166 172 181 189 200 170 152 182 184 188 185 182 212 203 195 183 170 191 207 205 203 203 201 190 191 197 196 202 182 177 206 214 155 146 142 170 187 195 204 219 225 234 235 211 191 223 261 258 230 197 235 235 233 228 234 245 244 243 246 249 253 258
321 307 289 267 249 238 233 234 233 237 244 243 238 226 200 188 186 203 228 239 5 242 144 153 175 156 151 165 182 192 197 185 114 164 171 181 187 191 211 202 193 138 149 213 217 224 303 197 189 184 205 202 180 191 187 188 191 133 129 153 32 55 135 170 200 208 218 234 234 216 199 204 252 262 234 216 244 242 235 233 232 240 244 244 246 249 253 257
321 306 286 270 254 241 235 235 232 231 235 235 223 200 179 172 188 228 220 206 10 226 134 125 189 151 155 172 184 190 196 183 143 154 158 167 187 194 183 185 180 128 164 197 221 236 264 206 179 185 205 190 152 171 208 180 165 129 131 165 185 250 169 29 152 200 224 229 228 220 209 204 231 258 242 196 235 242 225 231 235 228 234 240 244 248 251 254
319 304 282 267 255 244 236 238 240 231 227 224 198 176 169 178 214 230 248 31 15 222 154 155 193 171 169 175 180 182 189 188 163 161 172 166 179 192 185 182 175 165 178 182 205 225 229 225 234 308 209 176 165 185 163 74 152 174 159 162 192 203 195 213 200 214 237 238 234 212 204 211 231 254 260 234 228 233 221 222 223 223 230 236 241 247 250 252
317 302 280 262 249 242 237 239 240 230 224 210 184 167 173 231 207 208 229 55 196 246 253 168 172 179 178 176 183 180 183 191 168 167 184 180 181 190 194 195 185 184 171 179 196 204 219 240 224 281 286 182 177 184 188 159 171 191 181 176 196 193 205 219 206 223 236 241 250 194 185 215 231 245 252 249 240 237 242 238 226 226 235 240 244 249 251 253
315 297 277 262 250 241 236 236 232 226 214 196 183 173 193 225 203 203 209 202 236 260 321 198 167 169 184 189 187 174 179 193 171 171 180 179 189 192 194 202 197 202 110 165 191 184 198 230 201 195 210 184 187 196 192 168 172 195 187 183 201 197 211 218 206 225 237 250 259 172 173 206 198 206 236 249 250 236 239 243 236 232 239 245 250 252 252 254
314 290 267 260 249 237 233 230 226 223 200 184 184 199 199 207 200 201 209 196 251 248 296 294 177 168 190 199 191 182 189 193 174 176 182 182 192 191 189 196 192 193 172 171 191 186 203 239 208 198 196 172 187 201 178 147 172 203 179 191 211 208 215 236 222 182 193 298 280 183 215 221 214 258 274 282 291 241 238 242 238 238 242 245 250 253 254 255
316 286 265 259 246 234 229 222 217 214 195 177 190 225 206 217 192 169 195 171 170 186 108 338 201 176 193 197 198 198 198 192 172 178 197 191 196 193 189 192 186 187 188 181 178 168 200 235 201 188 202 192 191 192 170 162 174 182 192 204 214 198 204 241 264 181 192 264 238 186 242 276 267 281 277 257 252 249 253 250 239 241 244 242 246 251 254 255
319 291 278 266 250 239 227 215 208 202 192 180 206 222 206 241 203 171 179 159 157 163 131 259 222 189 197 196 201 199 193 187 181 187 199 190 199 194 187 195 191 188 189 185 192 178 184 222 228 160 203 215 191 172 176 189 174 157 200 198 152 69 136 187 255 245 242 256 245 203 222 230 228 253 268 255 242 231 240 247 241 245 246 242 243 248 253 256
318 294 288 278 261 241 220 211 203 195 189 185 217 217 202 235 218 199 188 160 149 150 142 208 213 191 205 200 198 191 183 188 190 194 198 187 198 189 181 191 196 194 196 190 194 204 170 215 286 183 187 191 151 149 193 221 194 154 200 181 155 173 187 185 217 227 227 238 243 236 235 226 214 227 267 266 255 238 221 227 245 248 246 244 246 251 255 257
312 289 289 296 276 229 209 201 193 188 187 196 219 212 196 220 231 242 233 194 152 160 178 213 206 184 210 208 204 186 182 194 194 196 204 192 195 191 182 183 190 198 202 191 187 216 169 193 273 277 157 143 142 166 201 207 204 293 193 170 179 227 201 195 204 222 228 229 237 242 240 231 213 209 226 248 257 253 207 193 234 244 244 245 247 253 257 258
302 276 287 305 294 217 200 191 185 183 189 212 215 211 179 196 214 228 232 229 170 173 197 207 202 191 196 231 267 211 191 203 202 204 210 187 179 196 187 180 180 193 199 195 197 190 129 188 232 322 359 179 171 192 204 200 196 192 179 175 192 208 186 185 210 225 231 228 237 246 241 233 212 194 205 232 255 262 225 193 213 229 238 244 249 253 256 258
295 264 292 303 286 197 184 181 184 185 199 213 214 234 217 189 185 211 222 220 225 251 232 200 210 201 181 198 251 249 210 213 211 214 217 194 193 204 190 185 178 181 187 193 208 197 128 189 206 171 178 200 191 201 218 213 199 190 192 188 191 194 185 213 225 218 219 221 227 244 249 247 243 213 204 221 245 266 236 204 217 229 236 245 252 254 256 260
294 239 287 305 222 183 177 177 189 187 200 217 208 192 189 189 170 182 204 205 217 259 303 20 244 207 181 183 199 213 215 225 220 215 217 207 208 215 193 190 184 174 175 190 206 198 128 138 168 170 182 202 233 248 266 217 184 189 208 200 202 206 190 207 222 207 201 216 220 245 259 256 244 221 218 231 240 267 249 212 226 241 243 249 256 258 260 264
283 249 270 288 232 185 178 185 213 187 208 238 182 194 192 185 162 158 178 188 194 240 217 246 234 212 219 202 182 190 211 226 226 220 221 207 206 213 198 189 182 169 169 193 201 189 132 118 154 173 156 285 296 309 344 18 132 176 214 202 205 212 204 213 221 206 211 210 199 236 253 245 246 229 223 250 258 265 251 232 235 247 252 257 262 266 270 274
283 262 260 269 225 190 183 208 204 200 225 74 96 237 214 187 185 174 176 190 185 168 188 219 227 208 220 218 182 182 198 214 235 227 224 214 209 215 199 187 183 173 178 195 186 175 189 187 157 148 114 89 294 318 322 278 192 193 211 206 206 209 210 219 229 227 241 206 191 226 245 233 255 261 240 264 280 269 246 236 237 247 258 267 272 281 288 291
283 262 254 245 206 192 194 227 191 203 218 178 192 237 214 213 211 194 190 194 188 168 178 219 219 190 187 204 218 201 196 214 240 231 225 225 226 222 194 188 186 185 196 196 181 174 191 195 171 177 183 185 197 210 212 206 196 196 208 211 212 209 206 211 219 222 222 196 195 220 238 245 275 284 278 277 277 273 258 238 229 237 257 280 291 296 298 298
284 261 280 242 204 199 208 218 203 182 203 194 209 210 206 223 232 203 198 203 202 189 186 216 183 169 174 177 227 244 217 215 228 243 244 226 229 276 193 189 189 196 203 195 177 168 184 214 201 201 207 206 206 212 201 156 161 187 196 204 210 208 204 203 209 222 218 212 222 222 222 245 262 267 267 265 264 274 275 263 248 241 256 278 286 289 291 294
289 263 203 119 220 223 224 215 208 163 172 187 201 200 207 217 229 200 201 211 209 193 196 294 185 191 199 181 210 241 224 213 217 228 245 230 244 314 203 186 193 201 202 192 177 173 181 217 208 211 224 228 225 215 174 145 176 197 196 204 211 205 200 201 212 221 213 217 237 230 220 236 247 249 252 255 258 265 270 272 275 274 271 272 275 279 283 286
288 297 288 303 227 224 229 211 206 215 199 182 193 195 207 215 220 213 202 208 205 188 197 263 216 211 214 194 201 228 217 217 219 217 232 231 237 290 221 186 208 205 199 190 186 184 194 215 208 207 224 234 231 202 167 168 184 194 194 205 209 200 195 202 215 222 217 217 235 234 226 231 239 246 252 252 251 254 261 269 276 276 273 272 271 272 274 276
337 323 311 320 298 265 294 230 192 213 224 199 208 218 207 210 215 215 189 107 212 206 202 229 224 217 220 209 206 222 210 209 221 217 217 217 213 212 198 206 240 214 198 194 201 186 177 213 209 201 220 234 226 193 181 186 182 190 202 206 203 195 196 204 214 222 223 226 232 237 238 238 238 248 255 254 252 255 261 265 267 268 269 270 267 263 264 268
344 322 310 320 309 275 282 262 187 209 221 210 223 222 210 218 217 213 185 169 204 207 190 218 227 216 215 214 210 223 218 207 223 224 205 203 212 207 200 200 194 192 190 191 202 190 183 216 207 191 217 237 221 194 191 189 177 190 207 204 196 192 195 206 215 219 223 229 233 238 249 254 247 244 252 257 260 259 261 262 263 265 267 270 270 267 267 268
345 330 308 301 292 248 250 243 199 210 215 212 229 224 221 233 218 203 217 212 215 208 189 216 228 219 215 219 217 229 227 212 222 227 206 198 207 205 209 204 165 165 185 191 188 183 189 213 190 168 212 235 218 198 191 171 144 205 216 190 186 190 197 206 211 211 212 218 227 235 244 250 247 241 247 259 259 252 258 262 263 266 270 274 276 274 272 270
351 343 324 290 268 243 232 225 211 227 224 207 220 221 226 232 197 174 225 228 221 221 216 216 222 216 217 218 220 231 231 223 229 238 227 219 223 223 222 209 183 178 182 186 188 181 183 198 179 165 207 236 220 187 174 151 152 235 226 206 196 197 203 207 211 216 213 206 212 224 227 235 244 241 237 251 252 244 251 257 260 268 274 274 270 268 271 273
Height
1493 1493 1493 1493 1493 1493 1494 1494 1495 1496 1497 1498 1499 1500 1500 1501 1502 1503 1503 1504 1505 1505 1506 1507 1507 1508 1508 1508 1508 1507 1506 1505 1505 1504 1501 1503 1508 1510 1510 1513 1515 1516 1517 1519 1520 1522 1523 1524 1525 1525 1526 1527 1527 1527 1528 1529 1530 1531 1533 1539 1541 1542 1540 1535 1535 1534 1531 1531 1530 1530 1529 1529 1530 1529 1530 1530 1530 1530 1530 1531 1531 1531 1531 1532 1532 1532 1532 1533
1490 1490 1490 1490 1491 1491 1491 1492 1492 1493 1494 1495 1496 1497 1498 1498 1499 1500 1501 1502 1503 1503 1505 1505 1506 1506 1507 1507 1507 1506 1505 1504 1503 1499 1498 1504 1506 1505 1509 1511 1513 1514 1515 1517 1519 1520 1522 1523 1524 1524 1525 1526 1526 1527 1527 1528 1528 1530 1533 1537 1537 1536 1533 1530 1530 1529 1529 1530 1529 1529 1529 1529 1529 1529 1529 1530 1531 1531 1531 1530 1530 1531 1531 1531 1532 1532 1532 1532
1487 1487 1487 1487 1488 1488 1488 1489 1489 1490 1491 1492 1493 1494 1495 1496 1497 1498 1499 1500 1500 1502 1503 1504 1505 1505 1505 1506 1506 1506 1505 1504 1500 1495 1499 1504 1501 1503 1507 1509 1511 1513 1514 1515 1517 1518 1520 1522 1523 1524 1524 1525 1525 1526 1526 1526 1527 1527 1531 1534 1532 1529 1529 1527 1528 1527 1528 1528 1527 1528 1528 1528 1528 1528 1529 1530 1531 1532 1531 1529 1529 1529 1529 1531 1531 1531 1531 1532
1484 1484 1484 1484 1485 1485 1486 1486 1487 1487 1488 1489 1490 1491 1492 1494 1495 1495 1497 1498 1498 1500 1500 1502 1503 1504 1504 1505 1505 1505 1505 1504 1497 1493 1499 1499 1497 1502 1505 1506 1510 1511 1512 1513 1515 1517 1519 1520 1522 1523 1524 1525 1525 1525 1525 1525 1526 1526 1527 1529 1526 1526 1527 1526 1526 1526 1527 1527 1526 1527 1527 1528 1528 1529 1529 1529 1531 1532 1529 1528 1528 1528 1528 1530 1530 1531 1531 1531
1482 1481 1481 1482 1482 1482 1483 1483 1484 1484 1485 1486 1487 1488 1490 1491 1492 1493 1494 1496 1496 1497 1499 1500 1501 1502 1503 1503 1504 1504 1507 1505 1495 1493 1496 1494 1496 1501 1501 1504 1507 1509 1510 1511 1513 1515 1517 1519 1521 1522 1523 1524 1524 1525 1524 1523 1524 1525 1524 1523 1522 1524 1525 1524 1524 1526 1526 1526 1526 1526 1527 1527 1527 1528 1529 1529 1530 1530 1527 1527 1528 1527 1528 1529 1530 1530 1530 1531
1479 1479 1479 1479 1479 1479 1480 1480 1481 1481 1482 1483 1484 1486 1487 1488 1490 1491 1492 1493 1495 1495 1497 1498 1499 1501 1502 1502 1502 1503 1504 1501 1493 1492 1493 1493 1495 1497 1498 1501 1503 1506 1507 1509 1512 1514 1516 1518 1519 1521 1522 1523 1524 1524 1523 1522 1523 1523 1522 1521 1521 1522 1522 1522 1523 1524 1524 1525 1525 1525 1526 1526 1527 1527 1527 1528 1527 1527 1527 1527 1528 1527 1528 1529 1529 1530 1530 1530
1476 1476 1476 1476 1476 1476 1477 1477 1478 1479 1480 1480 1481 1483 1484 1485 1487 1488 1489 1491 1492 1494 1495 1496 1497 1499 1500 1500 1500 1501 1499 1494 1492 1493 1492 1493 1494 1494 1495 1497 1499 1502 1503 1506 1509 1511 1514 1516 1517 1519 1521 1522 1523 1523 1522 1522 1522 1523 1522 1520 1519 1520 1520 1521 1522 1522 1523 1523 1524 1524 1525 1525 1526 1526 1526 1526 1525 1526 1527 1527 1527 1527 1527 1527 1528 1528 1529 1529
1473 1472 1473 1473 1473 1473 1474 1474 1475 1476 1477 1478 1479 1480 1481 1483 1484 1486 1487 1488 1490 1492 1493 1494 1495 1496 1498 1498 1497 1498 1492 1488 1493 1494 1492 1493 1492 1493 1494 1494 1496 1498 1500 1503 1506 1509 1512 1513 1515 1517 1520 1521 1521 1521 1522 1522 1522 1522 1521 1519 1518 1518 1519 1520 1521 1521 1522 1522 1523 1524 1524 1523 1524 1525 1524 1524 1524 1525 1525 1526 1526 1526 1526 1526 1527 1527 1528 1528
1470 1470 1470 1470 1470 1470 1471 1471 1472 1473 1474 1475 1476 1477 1478 1480 1482 1483 1484 1486 1487 1489 1490 1492 1493 1494 1496 1494 1496 1493 1482 1484 1494 1494 1493 1494 1493 1493 1494 1494 1495 1496 1499 1501 1504 1508 1510 1511 1513 1515 1517 1518 1519 1520 1521 1523 1523 1520 1520 1519 1517 1517 1518 1519 1520 1520 1521 1521 1522 1523 1523 1522 1522 1524 1522 1521 1522 1523 1524 1524 1525 1525 1525 1526 1526 1526 1526 1527
1467 1467 1467 1467 1467 1467 1468 1468 1469 1470 1471 1472 1473 1474 1476 1477 1479 1480 1482 1483 1485 1487 1488 1490 1491 1493 1493 1491 1493 1488 1478 1485 1493 1492 1493 1493 1493 1494 1494 1495 1495 1496 1497 1499 1502 1505 1507 1510 1512 1515 1517 1517 1518 1519 1520 1521 1520 1518 1519 1519 1517 1517 1517 1518 1519 1519 1520 1520 1521 1522 1521 1520 1521 1523 1521 1519 1520 1522 1522 1522 1523 1523 1524 1525 1525 1525 1525 1525
1465 1464 1464 1464 1464 1464 1465 1465 1466 1467 1468 1469 1471 1472 1473 1475 1476 1478 1479 1481 1482 1484 1486 1487 1489 1490 1490 1488 1488 1482 1479 1486 1489 1490 1492 1492 1492 1493 1493 1495 1495 1496 1497 1498 1500 1502 1506 1510 1512 1515 1516 1516 1517 1518 1518 1518 1518 1518 1519 1519 1518 1517 1516 1517 1518 1519 1519 1519 1519 1520 1520 1519 1521 1522 1519 1518 1520 1520 1520 1520 1521 1522 1522 1523 1523 1524 1524 1524
1462 1462 1461 1461 1461 1461 1462 1462 1463 1464 1465 1466 1468 1469 1470 1472 1473 1475 1477 1478 1480 1482 1483 1485 1487 1487 1487 1484 1479 1476 1481 1487 1487 1488 1490 1490 1492 1492 1493 1495 1495 1496 1496 1497 1499 1502 1506 1509 1512 1514 1514 1515 1516 1518 1517 1516 1518 1518 1518 1520 1518 1517 1515 1514 1516 1518 1518 1519 1518 1520 1521 1518 1518 1519 1516 1516 1518 1519 1519 1519 1519 1520 1520 1521 1521 1522 1522 1522
1460 1459 1459 1458 1458 1459 1459 1460 1460 1461 1462 1464 1465 1467 1468 1469 1471 1472 1474 1476 1477 1479 1481 1483 1484 1485 1484 1477 1472 1476 1482 1484 1484 1486 1488 1489 1490 1491 1493 1494 1494 1495 1496 1497 1499 1502 1506 1509 1510 1512 1513 1514 1515 1516 1515 1515 1517 1517 1518 1520 1520 1520 1513 1509 1513 1516 1517 1517 1516 1521 1522 1515 1512 1514 1513 1514 1516 1517 1517 1517 1517 1517 1518 1519 1519 1519 1519 1521
1458 1457 1456 1456 1455 1456 1456 1457 1458 1458 1459 1461 1462 1464 1465 1467 1468 1470 1472 1473 1475 1477 1478 1480 1482 1483 1479 1471 1470 1476 1480 1481 1481 1483 1486 1488 1488 1490 1492 1493 1494 1494 1495 1496 1499 1502 1505 1508 1510 1511 1512 1513 1513 1515 1515 1516 1517 1517 1520 1520 1521 1522 1512 1505 1510 1513 1515 1516 1515 1519 1521 1513 1510 1510 1511 1512 1513 1515 1515 1515 1515 1515 1516 1516 1516 1517 1517 1518
1456 1455 1454 1453 1453 1453 1454 1455 1455 1456 1457 1458 1460 1462 1463 1464 1465 1467 1469 1471 1473 1474 1476 1477 1478 1480 1476 1469 1469 1474 1477 1478 1478 1482 1485 1486 1487 1488 1490 1492 1493 1494 1494 1496 1498 1502 1504 1506 1508 1509 1510 1511 1513 1515 1516 1518 1517 1517 1520 1519 1519 1520 1512 1506 1508 1509 1512 1514 1513 1518 1519 1514 1510 1508 1509 1510 1510 1512 1512 1512 1512 1512 1512 1513 1513 1514 1514 1515
1453 1452 1451 1451 1451 1451 1451 1452 1453 1454 1455 1456 1458 1459 1460 1462 1463 1465 1467 1469 1471 1472 1474 1474 1474 1477 1474 1467 1467 1470 1472 1472 1474 1481 1484 1485 1486 1487 1488 1491 1492 1493 1494 1495 1498 1501 1503 1505 1507 1508 1509 1511 1513 1516 1518 1520 1519 1517 1516 1515 1516 1517 1516 1512 1508 1506 1508 1511 1512 1514 1515 1513 1508 1505 1507 1508 1507 1508 1509 1508 1508 1509 1509 1509 1510 1511 1511 1512
1451 1450 1449 1448 1448 1448 1449 1450 1451 1452 1453 1454 1455 1457 1458 1460 1461 1462 1464 1466 1468 1469 1472 1472 1473 1476 1471 1464 1465 1466 1465 1466 1471 1478 1481 1483 1485 1485 1487 1488 1490 1492 1493 1495 1498 1500 1503 1504 1506 1507 1508 1509 1511 1516 1519 1518 1515 1513 1513 1513 1512 1514 1517 1514 1509 1507 1507 1509 1511 1512 1512 1509 1506 1504 1504 1505 1505 1505 1505 1505 1505 1505 1506 1506 1508 1508 1509 1510
1449 1447 1446 1446 1446 1446 1447 1447 1448 1450 1451 1452 1453 1455 1456 1456 1458 1459 1461 1463 1465 1468 1470 1470 1472 1473 1465 1459 1462 1463 1463 1465 1469 1474 1478 1481 1483 1484 1485 1487 1488 1490 1492 1495 1496 1499 1501 1502 1504 1506 1507 1508 1508 1511 1511 1505 1503 1508 1512 1512 1510 1512 1514 1514 1510 1507 1507 1509 1511 1512 1510 1507 1506 1504 1502 1502 1504 1503 1503 1503 1503 1503 1504 1504 1505 1506 1507 1507
1447 1445 1444 1444 1444 1444 1445 1445 1446 1448 1449 1450 1451 1453 1453 1454 1456 1457 1458 1461 1462 1463 1464 1462 1463 1463 1458 1455 1458 1461 1463 1465 1468 1472 1474 1478 1481 1482 1484 1487 1487 1488 1490 1493 1494 1495 1498 1500 1503 1504 1503 1501 1500 1500 1499 1496 1499 1504 1506 1506 1510 1513 1513 1512 1510 1506 1507 1509 1511 1510 1506 1505 1506 1504 1502 1501 1502 1501 1501 1501 1502 1502 1502 1502 1503 1503 1504 1504
1445 1443 1442 1442 1442 1442 1443 1443 1444 1445 1447 1448 1449 1451 1451 1452 1455 1456 1456 1456 1456 1456 1456 1455 1455 1456 1455 1455 1457 1460 1463 1465 1468 1469 1472 1477 1480 1482 1484 1486 1487 1488 1488 1490 1491 1492 1496 1498 1498 1497 1494 1492 1494 1496 1497 1499 1502 1502 1504 1506 1508 1511 1510 1509 1509 1506 1506 1508 1507 1506 1504 1503 1503 1503 1501 1499 1499 1499 1499 1499 1500 1499 1499 1499 1499 1499 1500 1501
1442 1441 1440 1440 1440 1440 1440 1441 1442 1443 1445 1446 1448 1449 1448 1449 1452 1452 1452 1453 1453 1454 1454 1454 1456 1456 1456 1457 1457 1459 1461 1464 1466 1468 1471 1475 1478 1481 1484 1485 1486 1486 1486 1487 1489 1491 1494 1495 1491 1488 1487 1490 1494 1496 1499 1502 1503 1504 1508 1509 1509 1509 1507 1506 1507 1505 1506 1508 1505 1503 1504 1502 1501 1502 1501 1499 1497 1495 1496 1498 1496 1495 1496 1495 1496 1496 1497 1498
1440 1439 1438 1437 1437 1438 1439 1439 1440 1442 1443 1445 1446 1446 1445 1446 1448 1449 1450 1451 1450 1450 1452 1453 1455 1455 1455 1457 1457 1459 1461 1462 1465 1466 1468 1473 1476 1478 1480 1482 1483 1483 1484 1486 1488 1489 1490 1487 1483 1483 1487 1492 1495 1497 1500 1503 1504 1506 1510 1512 1510 1507 1506 1507 1506 1504 1507 1508 1504 1503 1504 1499 1498 1499 1498 1497 1495 1491 1492 1494 1493 1492 1493 1492 1493 1494 1494 1495
1436 1435 1435 1435 1435 1436 1436 1437 1438 1439 1440 1442 1443 1443 1443 1445 1448 1448 1450 1451 1448 1447 1448 1449 1452 1453 1453 1454 1456 1457 1459 1459 1462 1464 1466 1469 1471 1473 1475 1479 1481 1482 1483 1484 1484 1485 1484 1480 1478 1482 1488 1493 1496 1498 1501 1504 1506 1506 1509 1511 1507 1504 1507 1509 1507 1506 1506 1505 1502 1504 1503 1497 1495 1496 1494 1495 1492 1488 1489 1489 1489 1489 1489 1488 1489 1490 1491 1491
1433 1432 1432 1431 1432 1433 1434 1435 1436 1436 1437 1439 1440 1441 1442 1445 1448 1449 1450 1451 1447 1444 1444 1445 1449 1449 1449 1452 1454 1455 1456 1456 1458 1460 1463 1466 1468 1470 1472 1475 1478 1481 1481 1481 1482 1481 1479 1476 1477 1483 1487 1490 1495 1499 1501 1504 1504 1503 1504 1505 1503 1504 1507 1508 1507 1506 1505 1504 1502 1505 1507 1496 1490 1492 1490 1490 1491 1487 1485 1485 1484 1484 1483 1484 1485 1485 1487 1488
1430 1430 1429 1429 1430 1431 1432 1433 1432 1434 1436 1437 1437 1439 1442 1444 1446 1448 1450 1450 1447 1443 1442 1443 1445 1444 1446 1451 1452 1453 1455 1454 1454 1456 1459 1461 1463 1467 1469 1472 1475 1478 1479 1479 1481 1480 1477 1475 1477 1482 1484 1487 1493 1496 1496 1498 1501 1501 1498 1498 1499 1503 1506 1507 1508 1508 1509 1509 1503 1507 1513 1495 1479 1484 1485 1483 1487 1485 1482 1481 1478 1477 1478 1479 1480 1480 1482 1484
1428 1427 1426 1427 1428 1429 1430 1429 1429 1433 1434 1434 1435 1438 1442 1443 1445 1447 1449 1451 1446 1439 1438 1441 1441 1438 1439 1444 1448 1453 1455 1450 1450 1454 1455 1458 1461 1463 1466 1469 1471 1473 1475 1477 1480 1478 1475 1474 1476 1478 1482 1486 1490 1492 1490 1492 1499 1499 1492 1492 1498 1503 1506 1506 1508 1510 1513 1512 1504 1506 1513 1499 1479 1477 1478 1479 1482 1480 1479 1478 1472 1470 1473 1474 1475 1476 1478 1479
1426 1425 1425 1425 1426 1427 1427 1426 1428 1431 1430 1430 1433 1438 1441 1441 1444 1446 1448 1451 1441 1430 1433 1437 1436 1432 1431 1434 1441 1450 1450 1443 1447 1453 1451 1455 1460 1462 1465 1466 1467 1469 1470 1475 1479 1473 1471 1474 1475 1476 1479 1483 1485 1486 1485 1489 1496 1493 1486 1490 1497 1501 1503 1503 1508 1511 1509 1508 1508 1506 1510 1508 1489 1472 1471 1476 1477 1476 1475 1473 1467 1466 1469 1470 1471 1473 1474 1475
1424 1423 1423 1423 1424 1424 1424 1425 1426 1427 1427 1429 1433 1437 1439 1440 1444 1444 1448 1449 1432 1419 1424 1427 1428 1429 1429 1431 1435 1441 1442 1438 1443 1449 1449 1453 1457 1460 1463 1462 1463 1464 1464 1471 1474 1467 1465 1471 1473 1474 1478 1479 1480 1480 1481 1487 1492 1488 1486 1490 1492 1495 1499 1502 1507 1510 1509 1509 1510 1508 1508 1510 1491 1467 1468 1475 1473 1472 1470 1467 1465 1463 1466 1468 1469 1470 1470 1471
1423 1422 1421 1422 1422 1422 1423 1424 1424 1425 1427 1429 1433 1435 1436 1440 1444 1444 1447 1441 1420 1412 1419 1419 1421 1426 1427 1431 1434 1436 1439 1440 1441 1444 1447 1452 1454 1457 1460 1459 1459 1463 1464 1467 1469 1465 1465 1467 1469 1472 1475 1475 1475 1476 1478 1483 1486 1485 1487 1488 1490 1494 1497 1501 1505 1507 1511 1509 1504 1504 1505 1507 1488 1461 1466 1476 1469 1463 1462 1463 1464 1461 1463 1465 1465 1466 1467 1467
1421 1420 1420 1420 1420 1420 1422 1421 1422 1425 1427 1428 1431 1433 1435 1439 1442 1441 1442 1432 1414 1412 1417 1417 1416 1418 1422 1430 1433 1432 1435 1439 1441 1442 1445 1449 1452 1454 1457 1458 1459 1463 1466 1467 1467 1465 1465 1465 1467 1469 1470 1470 1471 1474 1476 1478 1481 1483 1487 1490 1493 1497 1498 1502 1505 1507 1509 1502 1494 1493 1493 1501 1490 1459 1455 1466 1460 1455 1458 1460 1460 1459 1461 1462 1461 1463 1464 1465
1420 1419 1418 1418 1418 1419 1419 1419 1421 1425 1426 1427 1428 1431 1435 1438 1438 1437 1432 1423 1416 1414 1416 1420 1419 1416 1418 1425 1429 1430 1433 1437 1440 1442 1445 1448 1452 1454 1455 1457 1460 1462 1466 1469 1468 1466 1466 1467 1466 1465 1465 1467 1470 1474 1476 1477 1479 1482 1487 1491 1495 1499 1501 1503 1506 1507 1502 1490 1481 1481 1483 1495 1489 1457 1446 1454 1451 1450 1454 1455 1455 1457 1457 1457 1458 1460 1460 1461
1418 1417 1416 1416 1416 1417 1417 1417 1420 1423 1425 1426 1429 1431 1434 1436 1435 1432 1425 1422 1420 1415 1413 1418 1421 1418 1419 1421 1423 1427 1430 1433 1436 1439 1442 1444 1448 1449 1448 1450 1452 1455 1461 1465 1466 1465 1466 1466 1464 1464 1463 1464 1469 1474 1477 1479 1481 1483 1486 1491 1495 1498 1498 1497 1499 1498 1491 1480 1471 1473 1481 1487 1479 1457 1446 1449 1449 1448 1449 1450 1451 1452 1452 1452 1454 1455 1456 1458
1415 1414 1413 1413 1413 1413 1415 1417 1419 1421 1423 1425 1429 1431 1433 1435 1430 1423 1423 1424 1421 1415 1412 1413 1415 1419 1421 1420 1421 1424 1428 1430 1432 1436 1440 1440 1442 1444 1443 1443 1443 1445 1450 1456 1462 1466 1468 1466 1465 1466 1464 1462 1464 1468 1474 1476 1478 1480 1481 1485 1490 1491 1491 1491 1490 1488 1484 1477 1469 1471 1479 1478 1470 1457 1445 1443 1446 1447 1446 1446 1446 1447 1448 1449 1450 1451 1453 1454
1412 1410 1410 1410 1410 1411 1413 1415 1416 1418 1421 1424 1427 1427 1429 1432 1424 1416 1419 1421 1418 1416 1415 1413 1413 1418 1420 1419 1418 1420 1426 1429 1429 1433 1438 1440 1442 1441 1442 1443 1443 1443 1445 1451 1458 1461 1465 1464 1460 1460 1458 1456 1457 1458 1462 1467 1472 1475 1473 1478 1482 1480 1483 1483 1481 1481 1479 1474 1472 1476 1478 1471 1462 1451 1438 1436 1440 1443 1442 1441 1443 1445 1446 1447 1448 1449 1450 1450
1408 1407 1407 1407 1408 1409 1410 1413 1414 1416 1420 1423 1425 1423 1422 1422 1419 1416 1417 1416 1416 1416 1414 1414 1415 1416 1418 1418 1417 1417 1420 1424 1427 1430 1434 1435 1435 1435 1436 1438 1440 1442 1443 1449 1453 1454 1458 1455 1447 1448 1449 1450 1453 1454 1456 1464 1472 1473 1471 1475 1476 1470 1471 1472 1471 1473 1473 1475 1477 1475 1470 1461 1451 1443 1436 1436 1438 1438 1438 1438 1440 1442 1442 1445 1446 1446 1446 1447
1404 1404 1404 1404 1405 1406 1408 1410 1412 1415 1418 1421 1423 1420 1415 1413 1412 1412 1411 1410 1414 1414 1413 1416 1416 1416 1418 1418 1418 1418 1417 1421 1425 1428 1430 1430 1428 1428 1429 1430 1432 1435 1436 1441 1445 1449 1455 1450 1442 1446 1449 1448 1450 1452 1454 1458 1464 1470 1471 1470 1468 1465 1466 1470 1473 1471 1473 1478 1473 1465 1463 1458 1451 1445 1436 1434 1436 1437 1437 1437 1438 1439 1440 1443 1443 1441 1442 1443
1402 1402 1402 1401 1402 1404 1406 1408 1410 1413 1415 1419 1420 1415 1410 1410 1408 1407 1406 1407 1410 1410 1412 1416 1416 1416 1418 1417 1417 1417 1418 1421 1423 1423 1425 1428 1425 1422 1425 1427 1427 1428 1429 1432 1436 1440 1445 1445 1442 1445 1447 1447 1448 1451 1454 1453 1454 1462 1464 1462 1465 1470 1471 1475 1480 1475 1476 1480 1466 1455 1459 1458 1455 1449 1435 1430 1433 1435 1435 1436 1437 1438 1438 1440 1439 1437 1438 1439
1401 1401 1400 1398 1399 1401 1403 1406 1408 1411 1413 1415 1415 1412 1409 1408 1406 1405 1405 1405 1407 1409 1413 1416 1414 1415 1416 1415 1413 1414 1417 1420 1419 1418 1420 1423 1421 1417 1420 1424 1425 1425 1425 1427 1432 1434 1437 1442 1444 1444 1444 1446 1448 1452 1455 1453 1452 1455 1456 1455 1462 1469 1470 1475 1478 1473 1473 1475 1463 1454 1455 1453 1451 1447 1435 1430 1430 1430 1434 1436 1436 1437 1436 1436 1436 1434 1435 1436
1401 1400 1398 1397 1397 1399 1401 1404 1407 1410 1412 1411 1410 1409 1408 1407 1406 1405 1405 1405 1405 1408 1412 1413 1411 1414 1416 1414 1410 1410 1414 1415 1414 1415 1416 1417 1417 1414 1414 1419 1422 1424 1424 1426 1430 1431 1433 1437 1441 1444 1446 1447 1448 1450 1451 1451 1453 1455 1455 1455 1457 1458 1460 1464 1465 1461 1462 1466 1460 1454 1452 1445 1440 1437 1433 1430 1425 1425 1432 1435 1435 1435 1433 1433 1432 1431 1431 1433
1401 1400 1398 1396 1397 1398 1400 1404 1406 1408 1408 1406 1405 1406 1406 1405 1405 1405 1405 1406 1405 1406 1408 1407 1408 1412 1414 1415 1414 1412 1412 1412 1412 1413 1411 1411 1412 1413 1413 1415 1418 1422 1424 1427 1430 1430 1432 1434 1438 1446 1450 1448 1445 1444 1441 1441 1446 1451 1455 1456 1456 1456 1457 1459 1458 1456 1457 1461 1459 1455 1449 1438 1429 1428 1429 1427 1422 1422 1428 1431 1431 1430 1428 1428 1428 1427 1428 1429
1401 1400 1397 1396 1397 1398 1400 1403 1403 1403 1404 1403 1403 1404 1404 1403 1402 1403 1404 1406 1407 1406 1405 1404 1406 1408 1410 1413 1415 1415 1414 1412 1411 1410 1409 1408 1409 1411 1411 1411 1414 1419 1424 1429 1430 1428 1430 1432 1435 1444 1449 1445 1440 1437 1435 1435 1438 1444 1449 1450 1450 1451 1455 1459 1460 1456 1454 1455 1452 1450 1447 1434 1424 1425 1424 1423 1422 1421 1424 1426 1426 1426 1425 1425 1424 1425 1426 1427
1402 1400 1397 1397 1397 1397 1399 1401 1400 1400 1401 1401 1400 1401 1401 1400 1400 1401 1403 1404 1406 1406 1406 1405 1405 1405 1407 1409 1411 1414 1415 1412 1409 1407 1405 1406 1407 1407 1407 1407 1409 1414 1420 1426 1426 1423 1424 1427 1433 1441 1443 1441 1439 1439 1440 1439 1437 1440 1444 1444 1445 1448 1450 1453 1454 1451 1450 1449 1445 1446 1446 1433 1423 1423 1423 1421 1422 1422 1423 1424 1424 1424 1424 1423 1423 1423 1425 1426
1401 1399 1397 1397 1397 1397 1398 1399 1399 1399 1398 1398 1397 1398 1399 1399 1400 1400 1401 1403 1405 1406 1406 1405 1405 1404 1404 1405 1407 1411 1414 1411 1408 1405 1402 1403 1404 1403 1403 1405 1408 1412 1416 1421 1422 1423 1424 1426 1432 1440 1442 1440 1440 1439 1439 1439 1438 1440 1442 1442 1441 1441 1440 1440 1439 1439 1442 1444 1444 1449 1448 1433 1421 1421 1423 1422 1422 1422 1423 1422 1422 1422 1421 1421 1422 1422 1423 1424
1400 1398 1397 1396 1397 1398 1397 1396 1396 1397 1396 1397 1399 1399 1398 1398 1398 1398 1399 1400 1402 1404 1404 1403 1403 1403 1402 1403 1403 1407 1411 1410 1407 1405 1403 1402 1400 1399 1401 1403 1405 1408 1410 1411 1413 1417 1421 1422 1428 1440 1447 1448 1447 1444 1442 1440 1438 1436 1434 1433 1432 1432 1435 1436 1437 1439 1442 1440 1440 1445 1443 1430 1421 1421 1421 1421 1421 1421 1421 1420 1420 1420 1419 1419 1421 1421 1422 1423
1399 1397 1396 1395 1395 1396 1396 1394 1394 1395 1396 1398 1400 1399 1399 1398 1396 1396 1397 1397 1398 1400 1401 1401 1400 1401 1402 1403 1403 1404 1408 1409 1407 1405 1404 1403 1400 1398 1399 1400 1402 1403 1403 1404 1406 1410 1414 1414 1418 1428 1436 1439 1438 1434 1429 1428 1429 1429 1427 1427 1429 1431 1435 1437 1439 1442 1442 1437 1436 1439 1437 1428 1421 1418 1418 1418 1419 1418 1417 1417 1418 1418 1418 1419 1419 1419 1419 1419
1399 1397 1396 1395 1395 1394 1394 1393 1394 1395 1395 1398 1399 1398 1398 1397 1395 1394 1395 1397 1397 1397 1398 1398 1398 1400 1402 1403 1404 1404 1404 1407 1409 1407 1404 1402 1400 1397 1396 1397 1399 1399 1401 1403 1407 1410 1412 1411 1409 1411 1412 1411 1411 1409 1407 1411 1419 1424 1424 1424 1425 1428 1430 1434 1438 1439 1436 1435 1434 1431 1430 1428 1423 1418 1415 1415 1415 1415 1413 1413 1415 1417 1418 1418 1418 1418 1417 1417
1399 1397 1396 1396 1395 1394 1393 1393 1394 1394 1394 1397 1397 1395 1395 1395 1394 1395 1395 1395 1395 1395 1397 1397 1397 1398 1399 1401 1403 1402 1401 1403 1407 1407 1404 1402 1400 1398 1396 1396 1397 1397 1400 1403 1406 1409 1411 1410 1407 1407 1405 1401 1400 1402 1404 1408 1412 1416 1418 1420 1421 1424 1427 1432 1434 1430 1430 1435 1432 1425 1426 1428 1423 1415 1412 1412 1413 1414 1411 1410 1412 1414 1415 1416 1416 1416 1417 1417
1399 1397 1396 1396 1395 1393 1392 1391 1392 1393 1394 1395 1394 1392 1393 1394 1394 1394 1394 1394 1394 1394 1396 1396 1395 1394 1394 1395 1398 1398 1398 1401 1403 1403 1403 1402 1402 1400 1397 1396 1397 1396 1399 1403 1404 1405 1407 1406 1403 1404 1405 1401 1401 1405 1406 1405 1408 1411 1414 1416 1418 1422 1427 1429 1428 1424 1425 1430 1427 1421 1422 1422 1416 1411 1410 1409 1410 1410 1409 1410 1411 1411 1411 1412 1414 1415 1415 1415
1400 1398 1396 1396 1395 1392 1391 1390 1391 1393 1393 1394 1393 1391 1391 1392 1391 1390 1391 1394 1395 1393 1393 1394 1391 1390 1390 1391 1394 1394 1394 1397 1397 1397 1398 1399 1399 1399 1398 1397 1396 1395 1397 1401 1402 1402 1404 1401 1399 1402 1404 1400 1402 1406 1406 1405 1408 1409 1410 1412 1414 1418 1422 1423 1424 1422 1421 1422 1420 1417 1417 1414 1412 1411 1407 1403 1405 1408 1408 1409 1408 1408 1408 1410 1411 1412 1412 1413
1403 1401 1398 1397 1395 1392 1391 1390 1390 1391 1391 1391 1390 1387 1387 1388 1388 1387 1388 1390 1391 1390 1391 1389 1384 1384 1386 1388 1391 1390 1387 1389 1388 1387 1391 1394 1395 1395 1394 1391 1389 1392 1397 1398 1400 1403 1404 1401 1397 1401 1404 1400 1400 1404 1406 1406 1408 1408 1410 1412 1413 1416 1420 1420 1419 1418 1418 1419 1418 1417 1418 1414 1410 1407 1403 1400 1404 1407 1406 1405 1404 1404 1405 1407 1409 1409 1410 1410
1404 1402 1400 1399 1395 1391 1389 1388 1388 1388 1387 1387 1386 1385 1385 1384 1384 1386 1386 1385 1384 1386 1385 1382 1380 1383 1385 1387 1388 1385 1381 1382 1381 1378 1382 1387 1386 1385 1384 1381 1382 1388 1394 1395 1396 1399 1403 1402 1398 1402 1405 1400 1396 1401 1406 1408 1409 1410 1412 1413 1413 1414 1414 1412 1410 1409 1411 1415 1417 1420 1420 1411 1401 1400 1401 1400 1400 1403 1402 1400 1400 1400 1402 1406 1407 1406 1405 1404
1402 1401 1399 1399 1394 1389 1386 1386 1386 1385 1383 1382 1382 1382 1381 1380 1381 1385 1386 1381 1379 1379 1379 1379 1381 1385 1387 1386 1382 1375 1372 1375 1376 1377 1381 1382 1380 1379 1380 1379 1378 1381 1386 1390 1392 1394 1398 1399 1399 1402 1403 1397 1394 1399 1406 1410 1411 1409 1405 1404 1404 1404 1403 1403 1404 1404 1404 1407 1411 1411 1407 1399 1394 1397 1400 1397 1395 1398 1398 1396 1396 1398 1400 1403 1402 1401 1399 1399